User: anonymous   Login
Location: Castro Valley
(37.6940°N, 122.0850°W)
Time: 01:26:46
(UTC-07:00)
Language:

PANSAT - Orbit

View from above orbital plane
View from above orbital plane
View from above satellite
View from above satellite

Ground track
Ground track

The orbit data is extracted from the following two-line orbital elements,

1 25520U 98064B   17266.75742156 +.00000784 +00000-0 +19667-4 0  9992
2 25520 028.4569 032.9592 0005400 020.4374 339.6437 15.28511142049074
Epoch (UTC): 23 September 2017 18:10:41
Eccentricity: 0.0005400
inclination: 28.4569°
perigee height: 476 km
apogee height: 484 km
right ascension of ascending node: 32.9592°
argument of perigee: 20.4374°
revolutions per day: 15.28511142
mean anomaly at epoch: 339.6437°
orbit number at epoch: 4907

The dashed part of the orbit path shows where the satellite is in the earth's shadow,  

DLR